| time (UTC) | temp F | wind direction | speed MPH | gust MPH | rain 1hr in | rain 24hr in | rain mn in | humidity % | barometer mb |
| 20260503232002 | 60 | 248 | 4.0 | 13.0 | 0.00 | 0.00 | 0.00 | 31 | 1008.9 |
| 20260503231503 | 61 | 273 | 4.0 | 10.0 | 0.00 | 0.00 | 0.00 | 30 | 1008.8 |
| 20260503231003 | 61 | 271 | 5.0 | 12.0 | 0.00 | 0.00 | 0.00 | 29 | 1008.8 |
| 20260503230501 | 61 | 264 | 4.0 | 12.0 | 0.00 | 0.00 | 0.00 | 29 | 1008.7 |
| 20260503230002 | 61 | 205 | 4.0 | 14.0 | 0.00 | 0.00 | 0.00 | 29 | 1008.6 |
| 20260503225503 | 61 | 310 | 4.0 | 14.0 | 0.00 | 0.00 | 0.00 | 30 | 1008.6 |
| 20260503225003 | 61 | 246 | 5.0 | 13.0 | 0.00 | 0.00 | 0.00 | 30 | 1008.6 |
| 20260503224502 | 61 | 198 | 5.0 | 13.0 | 0.00 | 0.00 | 0.00 | 29 | 1008.6 |
| 20260503224001 | 61 | 277 | 4.0 | 11.0 | 0.00 | 0.00 | 0.00 | 29 | 1008.6 |
| 20260503223503 | 62 | 227 | 4.0 | 11.0 | 0.00 | 0.00 | 0.00 | 30 | 1008.5 |
| 20260503223002 | 62 | 302 | 5.0 | 11.0 | 0.00 | 0.00 | 0.00 | 30 | 1008.4 |
| 20260503222502 | 62 | 306 | 5.0 | 13.0 | 0.00 | 0.00 | 0.00 | 30 | 1008.4 |
| 20260503222003 | 62 | 234 | 5.0 | 14.0 | 0.00 | 0.00 | 0.00 | 29 | 1008.5 |
| 20260503221503 | 62 | 277 | 5.0 | 16.0 | 0.00 | 0.00 | 0.00 | 29 | 1008.5 |
| 20260503221001 | 62 | 275 | 5.0 | 16.0 | 0.00 | 0.00 | 0.00 | 30 | 1008.5 |
| 20260503220501 | 62 | 287 | 6.0 | 15.0 | 0.00 | 0.00 | 0.00 | 31 | 1008.5 |
| 20260503220001 | 62 | 311 | 6.0 | 13.0 | 0.00 | 0.00 | 0.00 | 30 | 1008.4 |
| 20260503215502 | 62 | 261 | 6.0 | 14.0 | 0.00 | 0.00 | 0.00 | 30 | 1008.6 |
| 20260503215003 | 62 | 240 | 6.0 | 14.0 | 0.00 | 0.00 | 0.00 | 31 | 1008.7 |
| 20260503214503 | 62 | 319 | 6.0 | 16.0 | 0.00 | 0.00 | 0.00 | 32 | 1008.5 |
| 20260503214003 | 62 | 237 | 7.0 | 16.0 | 0.00 | 0.00 | 0.00 | 33 | 1008.5 |
| 20260503213743 | 62 | 284 | 7.0 | 17.0 | 0.00 | 0.00 | 0.00 | 31 | 1008.5 |
| 20260503213001 | 62 | 329 | 7.0 | 17.0 | 0.00 | 0.00 | 0.00 | 31 | 1008.5 |
| 20260503212501 | 62 | 319 | 8.0 | 19.0 | 0.00 | 0.00 | 0.00 | 30 | 1008.5 |
| 20260503212001 | 62 | 276 | 8.0 | 19.0 | 0.00 | 0.00 | 0.00 | 29 | 1008.5 |
| 20260503211502 | 62 | 279 | 7.0 | 18.0 | 0.00 | 0.00 | 0.00 | 31 | 1008.5 |
| 20260503211245 | 62 | 269 | 8.0 | 18.0 | 0.00 | 0.00 | 0.00 | 30 | 1008.5 |
| 20260503210500 | 61 | 13 | 8.0 | 20.0 | 0.00 | 0.00 | 0.00 | 29 | 1008.4 |
| 20260503210001 | 61 | 299 | 6.0 | 20.0 | 0.00 | 0.00 | 0.00 | 30 | 1008.4 |
| 20260503205500 | 62 | 265 | 6.0 | 18.0 | 0.00 | 0.00 | 0.00 | 31 | 1008.3 |
| 20260503205001 | 61 | 327 | 6.0 | 18.0 | 0.00 | 0.00 | 0.00 | 29 | 1008.3 |
| 20260503204502 | 61 | 329 | 7.0 | 16.0 | 0.00 | 0.00 | 0.00 | 31 | 1008.2 |
| 20260503204002 | 61 | 320 | 8.0 | 15.0 | 0.00 | 0.00 | 0.00 | 32 | 1008.2 |
| 20260503203750 | 61 | 325 | 7.0 | 19.0 | 0.00 | 0.00 | 0.00 | 31 | 1008.1 |
| 20260503203001 | 61 | 312 | 7.0 | 19.0 | 0.00 | 0.00 | 0.00 | 30 | 1008.2 |
| 20260503202746 | 61 | 306 | 8.0 | 19.0 | 0.00 | 0.00 | 0.00 | 30 | 1008.5 |
| 20260503202003 | 61 | 302 | 7.0 | 16.0 | 0.00 | 0.00 | 0.00 | 32 | 1008.5 |
| 20260503201502 | 61 | 315 | 8.0 | 19.0 | 0.00 | 0.00 | 0.00 | 32 | 1008.6 |
| 20260503201003 | 61 | 298 | 8.0 | 19.0 | 0.00 | 0.00 | 0.00 | 30 | 1008.6 |
| 20260503200502 | 61 | 277 | 7.0 | 17.0 | 0.00 | 0.00 | 0.00 | 33 | 1008.6 |
| 20260503200002 | 61 | 273 | 6.0 | 15.0 | 0.00 | 0.00 | 0.00 | 32 | 1008.6 |
| 20260503195503 | 61 | 277 | 6.0 | 15.0 | 0.00 | 0.00 | 0.00 | 35 | 1008.6 |
| 20260503195004 | 60 | 284 | 6.0 | 13.0 | 0.00 | 0.00 | 0.00 | 32 | 1008.6 |
| 20260503194502 | 60 | 325 | 7.0 | 19.0 | 0.00 | 0.00 | 0.00 | 34 | 1008.6 |
| 20260503194002 | 60 | 24 | 8.0 | 19.0 | 0.00 | 0.00 | 0.00 | 34 | 1008.7 |
| 20260503193503 | 60 | 336 | 7.0 | 18.0 | 0.00 | 0.00 | 0.00 | 32 | 1008.8 |
| 20260503193003 | 60 | 283 | 7.0 | 18.0 | 0.00 | 0.00 | 0.00 | 32 | 1008.8 |
| 20260503192500 | 60 | 263 | 7.0 | 18.0 | 0.00 | 0.00 | 0.00 | 34 | 1008.8 |
| 20260503191949 | 59 | 274 | 6.0 | 15.0 | 0.00 | 0.00 | 0.00 | 33 | 1009.0 |
| 20260503191439 | 59 | 321 | 5.0 | 15.0 | 0.00 | 0.00 | 0.00 | 33 | 1009.0 |
| 20260503190938 | 59 | 287 | 5.0 | 14.0 | 0.00 | 0.00 | 0.00 | 34 | 1009.0 |
| 20260503190438 | 59 | 275 | 8.0 | 22.0 | 0.00 | 0.00 | 0.00 | 33 | 1009.0 |
| 20260503185938 | 59 | 301 | 8.0 | 22.0 | 0.00 | 0.00 | 0.00 | 33 | 1009.0 |
| 20260503185437 | 59 | 306 | 6.0 | 20.0 | 0.00 | 0.00 | 0.00 | 34 | 1009.1 |
| 20260503184934 | 59 | 263 | 6.0 | 13.0 | 0.00 | 0.00 | 0.00 | 34 | 1009.3 |
| 20260503184432 | 59 | 325 | 7.0 | 19.0 | 0.00 | 0.00 | 0.00 | 35 | 1009.4 |
| 20260503183932 | 59 | 305 | 6.0 | 19.0 | 0.00 | 0.00 | 0.00 | 35 | 1009.4 |
| 20260503183433 | 58 | 300 | 7.0 | 19.0 | 0.00 | 0.00 | 0.00 | 35 | 1009.4 |
| 20260503182932 | 58 | 249 | 9.0 | 19.0 | 0.00 | 0.00 | 0.00 | 35 | 1009.5 |
| 20260503182430 | 58 | 315 | 9.0 | 21.0 | 0.00 | 0.00 | 0.00 | 36 | 1009.6 |
| 20260503181932 | 58 | 9 | 7.0 | 21.0 | 0.00 | 0.00 | 0.00 | 35 | 1009.5 |
| 20260503181429 | 58 | 304 | 7.0 | 17.0 | 0.00 | 0.00 | 0.00 | 38 | 1009.5 |
| 20260503180923 | 57 | 307 | 7.0 | 16.0 | 0.00 | 0.00 | 0.00 | 37 | 1009.6 |
| 20260503180413 | 57 | 299 | 7.0 | 16.0 | 0.00 | 0.00 | 0.00 | 37 | 1009.5 |
| 20260503175911 | 57 | 280 | 7.0 | 14.0 | 0.00 | 0.00 | 0.00 | 37 | 1009.6 |
| 20260503175402 | 57 | 253 | 7.0 | 18.0 | 0.00 | 0.00 | 0.00 | 38 | 1009.6 |
| 20260503174902 | 57 | 295 | 9.0 | 20.0 | 0.00 | 0.00 | 0.00 | 39 | 1009.6 |
| 20260503174404 | 57 | 316 | 10.0 | 20.0 | 0.00 | 0.00 | 0.00 | 38 | 1009.5 |
| 20260503173903 | 57 | 334 | 11.0 | 21.0 | 0.00 | 0.00 | 0.00 | 38 | 1009.6 |
| 20260503173402 | 56 | 9 | 9.0 | 21.0 | 0.00 | 0.00 | 0.00 | 39 | 1009.6 |
| 20260503172901 | 56 | 315 | 7.0 | 15.0 | 0.00 | 0.00 | 0.00 | 40 | 1009.6 |
| 20260503172402 | 56 | 287 | 8.0 | 19.0 | 0.00 | 0.00 | 0.00 | 38 | 1009.5 |
| 20260503171901 | 56 | 263 | 7.0 | 19.0 | 0.00 | 0.00 | 0.00 | 37 | 1009.6 |
| 20260503171402 | 56 | 290 | 7.0 | 15.0 | 0.00 | 0.00 | 0.00 | 40 | 1009.7 |
| 20260503170902 | 56 | 281 | 8.0 | 15.0 | 0.00 | 0.00 | 0.00 | 40 | 1009.8 |
| 20260503170402 | 56 | 323 | 9.0 | 16.0 | 0.00 | 0.00 | 0.00 | 39 | 1009.9 |
| 20260503150902 | 53 | 278 | 6.0 | 16.0 | 0.00 | 0.00 | 0.00 | 42 | 1010.0 |
| 20260503150402 | 54 | 298 | 7.0 | 17.0 | 0.00 | 0.00 | 0.00 | 40 | 1010.2 |
| 20260503150148 | 55 | 311 | 9.0 | 24.0 | 0.00 | 0.00 | 0.00 | 40 | 1010.1 |
| 20260503131402 | 49 | 290 | 8.0 | 16.0 | 0.00 | 0.00 | 0.00 | 53 | 1010.4 |
| 20260503130902 | 49 | 330 | 7.0 | 16.0 | 0.00 | 0.00 | 0.00 | 53 | 1010.4 |
| 20260503130403 | 49 | 10 | 6.0 | 16.0 | 0.00 | 0.00 | 0.00 | 53 | 1010.4 |
| 20260503130143 | 49 | 293 | 7.0 | 13.0 | 0.00 | 0.00 | 0.00 | 53 | 1010.2 |
| 20260503110401 | 48 | 348 | 6.0 | 15.0 | 0.00 | 0.00 | 0.00 | 54 | 1009.4 |
| 20260503090402 | 49 | 42 | 5.0 | 14.0 | 0.00 | 0.00 | 0.00 | 52 | 1008.0 |
| 20260503081342 | 50 | 344 | 4.0 | 11.0 | 0.00 | 0.00 | 0.00 | 52 | 1007.9 |
| 20260503080829 | 50 | 331 | 3.0 | 11.0 | 0.00 | 0.00 | 0.00 | 50 | 1007.9 |
| 20260503080330 | 50 | 13 | 4.0 | 16.0 | 0.00 | 0.00 | 0.00 | 51 | 1007.9 |
| 20260503072829 | 51 | 322 | 4.0 | 12.0 | 0.00 | 0.00 | 0.00 | 48 | 1008.0 |
| 20260503072329 | 51 | 315 | 4.0 | 13.0 | 0.00 | 0.00 | 0.00 | 48 | 1008.0 |
| 20260503072116 | 51 | 350 | 5.0 | 14.0 | 0.00 | 0.00 | 0.00 | 48 | 1007.9 |
| 20260503071328 | 51 | 342 | 4.0 | 14.0 | 0.00 | 0.00 | 0.00 | 48 | 1007.9 |
| 20260503070828 | 52 | 355 | 4.0 | 13.0 | 0.00 | 0.00 | 0.00 | 48 | 1007.9 |
| 20260503070329 | 52 | 331 | 5.0 | 12.0 | 0.00 | 0.00 | 0.00 | 48 | 1007.8 |
| 20260503060330 | 53 | 57 | 5.0 | 12.0 | 0.00 | 0.00 | 0.00 | 46 | 1007.9 |
| 20260503060110 | 53 | 323 | 5.0 | 12.0 | 0.00 | 0.00 | 0.00 | 45 | 1008.2 |
| 20260503054329 | 53 | 11 | 5.0 | 16.0 | 0.00 | 0.00 | 0.00 | 46 | 1008.0 |
| 20260503053829 | 53 | 325 | 5.0 | 12.0 | 0.00 | 0.00 | 0.00 | 45 | 1008.0 |
| 20260503053331 | 53 | 9 | 5.0 | 15.0 | 0.00 | 0.00 | 0.00 | 46 | 1008.0 |
| 20260503052830 | 54 | 63 | 6.0 | 15.0 | 0.00 | 0.00 | 0.00 | 44 | 1008.1 |
| 20260503052611 | 54 | 27 | 5.0 | 14.0 | 0.00 | 0.00 | 0.00 | 45 | 1008.1 |
| 20260503051831 | 54 | 342 | 4.0 | 14.0 | 0.00 | 0.00 | 0.00 | 44 | 1008.1 |
| 20260503051330 | 54 | 54 | 4.0 | 11.0 | 0.00 | 0.00 | 0.00 | 45 | 1008.4 |
| 20260503050830 | 54 | 325 | 3.0 | 10.0 | 0.00 | 0.00 | 0.00 | 43 | 1008.4 |
| 20260503050330 | 54 | 34 | 2.0 | 9.0 | 0.00 | 0.00 | 0.00 | 45 | 1008.6 |
| 20260503045831 | 54 | 345 | 3.0 | 9.0 | 0.00 | 0.00 | 0.00 | 46 | 1008.5 |
| 20260503045330 | 54 | 347 | 3.0 | 10.0 | 0.00 | 0.00 | 0.00 | 45 | 1008.6 |
| 20260503044830 | 55 | 342 | 3.0 | 10.0 | 0.00 | 0.00 | 0.00 | 45 | 1008.6 |
| 20260503044330 | 55 | 40 | 3.0 | 10.0 | 0.00 | 0.00 | 0.00 | 43 | 1008.8 |
| 20260503044113 | 55 | 11 | 4.0 | 12.0 | 0.00 | 0.00 | 0.00 | 45 | 1008.7 |
| 20260503043331 | 55 | 322 | 4.0 | 12.0 | 0.00 | 0.00 | 0.00 | 44 | 1008.6 |
| 20260503042830 | 55 | 342 | 4.0 | 10.0 | 0.00 | 0.00 | 0.00 | 43 | 1008.5 |
| 20260503042330 | 55 | 333 | 4.0 | 12.0 | 0.00 | 0.00 | 0.00 | 43 | 1008.6 |
| 20260503041830 | 55 | 65 | 4.0 | 14.0 | 0.00 | 0.00 | 0.00 | 44 | 1008.4 |
| 20260503041330 | 55 | 24 | 5.0 | 14.0 | 0.00 | 0.00 | 0.00 | 43 | 1008.5 |
| 20260503040830 | 55 | 27 | 4.0 | 11.0 | 0.00 | 0.00 | 0.00 | 43 | 1008.5 |
| 20260503040331 | 55 | 0 | 4.0 | 11.0 | 0.00 | 0.00 | 0.00 | 43 | 1008.6 |
| 20260503035830 | 55 | 348 | 4.0 | 10.0 | 0.00 | 0.00 | 0.00 | 45 | 1008.6 |
| 20260503035330 | 56 | 340 | 3.0 | 10.0 | 0.00 | 0.00 | 0.00 | 44 | 1008.6 |
| 20260503035111 | 56 | 347 | 3.0 | 9.0 | 0.00 | 0.00 | 0.00 | 45 | 1008.5 |
| 20260503034331 | 56 | 13 | 4.0 | 13.0 | 0.00 | 0.00 | 0.00 | 44 | 1008.6 |
| 20260503033829 | 56 | 23 | 5.0 | 13.0 | 0.00 | 0.00 | 0.00 | 42 | 1008.7 |
| 20260503033403 | 56 | 349 | 4.0 | 10.0 | 0.00 | 0.00 | 0.00 | 45 | 1008.5 |
| 20260503033354 | 56 | 39 | 4.0 | 12.0 | 0.00 | 0.00 | 0.00 | 43 | 1008.6 |
| 20260503032330 | 56 | 52 | 3.0 | 9.0 | 0.00 | 0.00 | 0.00 | 44 | 1008.5 |
| 20260503032115 | 56 | 67 | 3.0 | 9.0 | 0.00 | 0.00 | 0.00 | 42 | 1008.5 |
| 20260503031330 | 56 | 50 | 2.0 | 5.0 | 0.00 | 0.00 | 0.00 | 45 | 1008.5 |
| 20260503030830 | 56 | 5 | 2.0 | 9.0 | 0.00 | 0.00 | 0.00 | 46 | 1008.5 |
| 20260503030330 | 56 | 51 | 3.0 | 12.0 | 0.00 | 0.00 | 0.00 | 44 | 1008.5 |
| 20260503025832 | 56 | 322 | 3.0 | 12.0 | 0.00 | 0.00 | 0.00 | 42 | 1008.5 |
| 20260503025331 | 56 | 25 | 3.0 | 12.0 | 0.00 | 0.00 | 0.00 | 43 | 1008.5 |
| 20260503024830 | 56 | 346 | 3.0 | 12.0 | 0.00 | 0.00 | 0.00 | 43 | 1008.6 |
| 20260503024616 | 56 | 336 | 3.0 | 12.0 | 0.00 | 0.00 | 0.00 | 43 | 1008.7 |
| 20260503023830 | 57 | 38 | 3.0 | 10.0 | 0.00 | 0.00 | 0.00 | 44 | 1008.7 |
| 20260503023330 | 57 | 33 | 3.0 | 9.0 | 0.00 | 0.00 | 0.00 | 44 | 1008.4 |
| 20260503022901 | 57 | 338 | 4.0 | 13.0 | 0.00 | 0.00 | 0.00 | 44 | 1008.3 |
| 20260503022850 | 57 | 30 | 3.0 | 13.0 | 0.00 | 0.00 | 0.00 | 44 | 1008.4 |
| 20260503021831 | 57 | 309 | 4.0 | 12.0 | 0.00 | 0.00 | 0.00 | 44 | 1008.5 |
| 20260503021328 | 57 | 346 | 4.0 | 12.0 | 0.00 | 0.00 | 0.00 | 43 | 1008.5 |
| 20260503021110 | 57 | 5 | 4.0 | 11.0 | 0.00 | 0.00 | 0.00 | 44 | 1008.6 |
| 20260503020329 | 57 | 324 | 4.0 | 10.0 | 0.00 | 0.00 | 0.00 | 44 | 1008.7 |
| 20260503015829 | 57 | 40 | 4.0 | 10.0 | 0.00 | 0.00 | 0.00 | 44 | 1008.7 |
| 20260503015329 | 57 | 11 | 4.0 | 13.0 | 0.00 | 0.00 | 0.00 | 43 | 1008.7 |
| 20260503014830 | 57 | 38 | 5.0 | 13.0 | 0.00 | 0.00 | 0.00 | 42 | 1008.6 |
| 20260503014324 | 57 | 350 | 5.0 | 11.0 | 0.00 | 0.00 | 0.00 | 44 | 1008.7 |
| 20260503014055 | 57 | 47 | 4.0 | 13.0 | 0.00 | 0.00 | 0.00 | 43 | 1008.7 |
| 20260503013304 | 57 | 297 | 4.0 | 14.0 | 0.00 | 0.00 | 0.00 | 43 | 1008.7 |
| 20260503012806 | 58 | 20 | 4.0 | 14.0 | 0.00 | 0.00 | 0.00 | 42 | 1008.7 |
| 20260503012306 | 58 | 17 | 5.0 | 16.0 | 0.00 | 0.00 | 0.00 | 43 | 1008.6 |
| 20260503011804 | 58 | 0 | 5.0 | 16.0 | 0.00 | 0.00 | 0.00 | 41 | 1008.6 |
| 20260503011306 | 58 | 5 | 4.0 | 15.0 | 0.00 | 0.00 | 0.00 | 43 | 1008.6 |
| 20260503010805 | 58 | 9 | 4.0 | 13.0 | 0.00 | 0.00 | 0.00 | 45 | 1008.5 |
| 20260503010305 | 58 | 47 | 4.0 | 12.0 | 0.00 | 0.00 | 0.00 | 45 | 1008.5 |
| 20260503005804 | 58 | 330 | 3.0 | 8.0 | 0.00 | 0.00 | 0.00 | 45 | 1008.4 |
| 20260503005305 | 58 | 311 | 4.0 | 10.0 | 0.00 | 0.00 | 0.00 | 45 | 1008.4 |
| 20260503004805 | 58 | 344 | 3.0 | 10.0 | 0.00 | 0.00 | 0.00 | 43 | 1008.2 |
| 20260503004307 | 58 | 0 | 3.0 | 11.0 | 0.00 | 0.00 | 0.00 | 44 | 1008.1 |
| 20260503003805 | 58 | 309 | 3.0 | 11.0 | 0.00 | 0.00 | 0.00 | 46 | 1008.1 |
| 20260503003304 | 58 | 347 | 3.0 | 8.0 | 0.00 | 0.00 | 0.00 | 45 | 1007.9 |
| 20260503002803 | 58 | 327 | 3.0 | 8.0 | 0.00 | 0.00 | 0.00 | 46 | 1007.9 |
| 20260503002301 | 59 | 341 | 3.0 | 9.0 | 0.00 | 0.00 | 0.00 | 45 | 1007.8 |
| 20260503001800 | 59 | 0 | 3.0 | 9.0 | 0.00 | 0.00 | 0.00 | 45 | 1007.8 |
| 20260503001545 | 59 | 330 | 3.0 | 9.0 | 0.00 | 0.00 | 0.00 | 43 | 1007.7 |
| 20260503000801 | 59 | 308 | 4.0 | 9.0 | 0.00 | 0.00 | 0.00 | 41 | 1007.9 |
| 20260503000301 | 59 | 329 | 2.0 | 7.0 | 0.00 | 0.00 | 0.00 | 44 | 1007.8 |
| 20260503000046 | 59 | 313 | 1.0 | 6.0 | 0.00 | 0.00 | 0.00 | 46 | 1007.8 |
| 20260502235300 | 59 | 329 | 1.0 | 4.0 | 0.00 | 0.00 | 0.00 | 44 | 1007.7 |
| 20260502234802 | 60 | 351 | 2.0 | 10.0 | 0.00 | 0.00 | 0.00 | 43 | 1008.0 |
| 20260502234302 | 60 | 0 | 3.0 | 10.0 | 0.00 | 0.00 | 0.00 | 43 | 1008.1 |
| 20260502233800 | 60 | 337 | 2.0 | 7.0 | 0.00 | 0.00 | 0.00 | 42 | 1008.0 |
| 20260502233302 | 60 | 0 | 2.0 | 6.0 | 0.00 | 0.00 | 0.00 | 44 | 1007.9 |
| 20260502232801 | 60 | 350 | 2.0 | 6.0 | 0.00 | 0.00 | 0.00 | 43 | 1007.9 |
| 20260502232304 | 60 | 327 | 2.0 | 7.0 | 0.00 | 0.00 | 0.00 | 40 | 1007.8 |